| time (UTC) | temp F | wind direction | speed knots | gust knots | rain 1hr in | rain 24hr in | rain mn in | humidity % | barometer mb |
| 20260903163953 | 74 | 270 | 4.3 | 7.8 | 0.00 | 0.00 | 0.00 | 84 | 1015.6 |
| 20260903162753 | 74 | 254 | 7.8 | 17.4 | 0.00 | 0.00 | 0.00 | 84 | 1015.6 |
| 20260903161551 | 75 | 270 | 6.1 | 7.8 | 0.00 | 0.00 | 0.00 | 83 | 1015.6 |
| 20260903160350 | 75 | 270 | 7.8 | 11.3 | 0.00 | 0.00 | 0.00 | 83 | 1015.6 |
| 20260903155149 | 75 | 293 | 7.0 | 12.2 | 0.00 | 0.00 | 0.00 | 82 | 1015.6 |
| 20260903154008 | 75 | 281 | 13.0 | 17.4 | 0.00 | 0.00 | 0.00 | 82 | 1015.6 |
| 20260903152807 | 75 | 286 | 9.6 | 13.0 | 0.00 | 0.00 | 0.00 | 82 | 1015.6 |
| 20260903151547 | 75 | 270 | 10.4 | 11.3 | 0.00 | 0.00 | 0.00 | 81 | 1015.6 |
| 20260903150345 | 75 | 293 | 9.6 | 13.0 | 0.00 | 0.00 | 0.00 | 80 | 1015.6 |
| 20260903145144 | 76 | 270 | 13.0 | 20.0 | 0.00 | 0.00 | 0.00 | 80 | 1015.6 |
| 20260903143943 | 76 | 270 | 6.1 | 10.4 | 0.00 | 0.00 | 0.00 | 81 | 1015.6 |
| 20260903142741 | 76 | 270 | 10.4 | 13.9 | 0.00 | 0.00 | 0.00 | 80 | 1015.6 |
| 20260903141540 | 75 | 270 | 9.6 | 13.0 | 0.00 | 0.00 | 0.00 | 81 | 1015.6 |
| 20260903140419 | 75 | 277 | 8.7 | 15.6 | 0.00 | 0.00 | 0.00 | 80 | 1015.6 |
| 20260903135138 | 75 | 270 | 9.6 | 14.8 | 0.00 | 0.00 | 0.00 | 81 | 1015.6 |
| 20260903133937 | 76 | 281 | 10.4 | 17.4 | 0.00 | 0.00 | 0.00 | 81 | 1015.6 |
| 20260903132735 | 76 | 270 | 8.7 | 12.2 | 0.00 | 0.00 | 0.00 | 80 | 1015.6 |
| 20260903131535 | 77 | 270 | 8.7 | 11.3 | 0.00 | 0.00 | 0.00 | 82 | 1015.6 |
| 20260903130333 | 74 | 270 | 11.3 | 16.5 | 0.00 | 0.00 | 0.00 | 84 | 1015.6 |
| 20260903125132 | 74 | 274 | 12.2 | 15.6 | 0.00 | 0.00 | 0.00 | 85 | 1015.6 |
| 20260903123932 | 73 | 270 | 10.4 | 13.0 | 0.00 | 0.00 | 0.00 | 85 | 1015.6 |
| 20260903122731 | 73 | 270 | 10.4 | 15.6 | 0.00 | 0.00 | 0.00 | 88 | 1015.6 |
| 20260903121528 | 73 | 270 | 11.3 | 17.4 | 0.00 | 0.00 | 0.00 | 88 | 1015.6 |
| 20260903120328 | 73 | 256 | 7.0 | 11.3 | 0.00 | 0.00 | 0.00 | 88 | 1015.6 |
| 20260903115127 | 73 | 257 | 10.4 | 13.0 | 0.00 | 0.00 | 0.00 | 88 | 1015.6 |
| 20260903113926 | 73 | 277 | 7.8 | 11.3 | 0.00 | 0.00 | 0.00 | 89 | 1015.6 |
| 20260903112745 | 74 | 288 | 7.0 | 8.7 | 0.00 | 0.00 | 0.00 | 90 | 1015.6 |
| 20260903111524 | 73 | 275 | 6.1 | 7.8 | 0.00 | 0.00 | 0.00 | 92 | 1015.6 |
| 20260903110342 | 71 | 284 | 10.4 | 13.0 | 0.00 | 0.00 | 0.00 | 96 | 1015.6 |
| 20260903105121 | 70 | 257 | 7.8 | 11.3 | 0.00 | 0.00 | 0.00 | 96 | 1015.6 |
| 20260903103920 | 69 | 270 | 8.7 | 13.0 | 0.00 | 0.00 | 0.00 | 97 | 1015.6 |
| 20260903102759 | 69 | 293 | 7.8 | 11.3 | 0.00 | 0.00 | 0.00 | 97 | 1015.6 |
| 20260903101518 | 69 | 251 | 7.8 | 10.4 | 0.00 | 0.00 | 0.00 | 98 | 1015.6 |
| 20260903100317 | 69 | 265 | 7.8 | 12.2 | 0.00 | 0.00 | 0.00 | 98 | 1015.6 |
| 20260903095115 | 69 | 270 | 10.4 | 13.9 | 0.00 | 0.00 | 0.00 | 97 | 1015.6 |
| 20260903094014 | 68 | 270 | 7.0 | 9.6 | 0.00 | 0.00 | 0.00 | 97 | 1015.6 |
| 20260903092813 | 68 | 248 | 6.1 | 7.8 | 0.00 | 0.00 | 0.00 | 96 | 1015.6 |
| 20260903091612 | 68 | 270 | 8.7 | 12.2 | 0.00 | 0.00 | 0.00 | 96 | 1015.6 |
| 20260903090411 | 68 | 264 | 5.2 | 7.0 | 0.00 | 0.00 | 0.00 | 96 | 1015.6 |
| 20260903085310 | 68 | 248 | 8.7 | 13.0 | 0.00 | 0.00 | 0.00 | 96 | 1015.6 |
| 20260903084009 | 68 | 264 | 6.1 | 7.8 | 0.00 | 0.00 | 0.00 | 96 | 1015.6 |
| 20260903082827 | 68 | 274 | 9.6 | 15.6 | 0.00 | 0.00 | 0.00 | 96 | 1015.6 |
| 20260903081606 | 67 | 265 | 10.4 | 15.6 | 0.00 | 0.00 | 0.00 | 96 | 1015.6 |
| 20260903080405 | 67 | 270 | 6.1 | 8.7 | 0.00 | 0.00 | 0.00 | 96 | 1015.6 |
| 20260903075204 | 67 | 270 | 4.3 | 6.1 | 0.00 | 0.00 | 0.00 | 96 | 1015.6 |
| 20260903074003 | 67 | 265 | 8.7 | 13.0 | 0.00 | 0.00 | 0.00 | 96 | 1015.6 |
| 20260903072802 | 67 | 260 | 8.7 | 11.3 | 0.00 | 0.00 | 0.00 | 96 | 1015.6 |
| 20260903071600 | 67 | 258 | 7.0 | 11.3 | 0.00 | 0.00 | 0.00 | 95 | 1015.6 |
| 20260903070439 | 67 | 270 | 8.7 | 13.0 | 0.00 | 0.00 | 0.00 | 95 | 1015.6 |
| 20260903065158 | 66 | 260 | 6.1 | 8.7 | 0.00 | 0.00 | 0.00 | 95 | 1015.6 |
| 20260903063957 | 66 | 264 | 9.6 | 11.3 | 0.00 | 0.00 | 0.00 | 95 | 1015.6 |
| 20260903062756 | 66 | 248 | 6.1 | 11.3 | 0.00 | 0.00 | 0.00 | 94 | 1015.6 |
| 20260903061554 | 66 | 248 | 6.1 | 9.6 | 0.00 | 0.00 | 0.00 | 94 | 1015.6 |
| 20260903060353 | 66 | 248 | 8.7 | 11.3 | 0.00 | 0.00 | 0.00 | 94 | 1015.6 |
| 20260903055152 | 66 | 248 | 5.2 | 7.0 | 0.00 | 0.00 | 0.00 | 93 | 1015.6 |
| 20260903053951 | 67 | 255 | 5.2 | 7.8 | 0.00 | 0.00 | 0.00 | 92 | 1015.6 |
| 20260903052750 | 67 | 264 | 6.1 | 11.3 | 0.00 | 0.00 | 0.00 | 90 | 1015.6 |
| 20260903051549 | 67 | 262 | 4.3 | 9.6 | 0.00 | 0.00 | 0.00 | 90 | 1015.6 |
| 20260903050408 | 67 | 253 | 5.2 | 6.1 | 0.00 | 0.00 | 0.00 | 90 | 1015.6 |
| 20260903045147 | 67 | 254 | 4.3 | 7.8 | 0.00 | 0.00 | 0.00 | 89 | 1015.6 |
| 20260903043946 | 67 | 248 | 5.2 | 8.7 | 0.00 | 0.00 | 0.00 | 88 | 1015.6 |
| 20260903042744 | 67 | 248 | 5.2 | 7.0 | 0.00 | 0.00 | 0.00 | 87 | 1015.6 |
| 20260903041543 | 67 | 248 | 6.1 | 8.7 | 0.00 | 0.00 | 0.00 | 86 | 1015.6 |
| 20260903040342 | 67 | 261 | 6.1 | 8.7 | 0.00 | 0.00 | 0.00 | 86 | 1015.6 |
| 20260903035141 | 67 | 252 | 6.1 | 8.7 | 0.00 | 0.00 | 0.00 | 85 | 1015.6 |
| 20260903033940 | 67 | 248 | 8.7 | 8.7 | 0.00 | 0.00 | 0.00 | 85 | 1015.6 |
| 20260903032739 | 67 | 243 | 6.1 | 9.6 | 0.00 | 0.00 | 0.00 | 85 | 1015.6 |
| 20260903031538 | 67 | 248 | 10.4 | 15.6 | 0.00 | 0.00 | 0.00 | 84 | 1015.6 |
| 20260903030337 | 67 | 248 | 6.1 | 9.6 | 0.00 | 0.00 | 0.00 | 83 | 1015.6 |
| 20260903025155 | 67 | 248 | 7.8 | 9.6 | 0.00 | 0.00 | 0.00 | 83 | 1015.6 |
| 20260903023935 | 67 | 248 | 7.8 | 12.2 | 0.00 | 0.00 | 0.00 | 82 | 1015.6 |
| 20260903022733 | 67 | 248 | 7.8 | 9.6 | 0.00 | 0.00 | 0.00 | 81 | 1015.6 |
| 20260903021532 | 67 | 236 | 8.7 | 12.2 | 0.00 | 0.00 | 0.00 | 81 | 1015.6 |
| 20260903020331 | 67 | 231 | 10.4 | 13.0 | 0.00 | 0.00 | 0.00 | 81 | 1015.6 |
| 20260903015130 | 66 | 235 | 7.0 | 7.8 | 0.00 | 0.00 | 0.00 | 81 | 1015.6 |
| 20260903013929 | 66 | 232 | 5.2 | 8.7 | 0.00 | 0.00 | 0.00 | 82 | 1015.6 |
| 20260903012728 | 66 | 234 | 5.2 | 9.6 | 0.00 | 0.00 | 0.00 | 83 | 1015.6 |
| 20260903011547 | 66 | 238 | 4.3 | 6.1 | 0.00 | 0.00 | 0.00 | 83 | 1015.6 |
| 20260903010326 | 66 | 225 | 3.5 | 7.0 | 0.00 | 0.00 | 0.00 | 83 | 1015.6 |
| 20260903005125 | 66 | 242 | 4.3 | 5.2 | 0.00 | 0.00 | 0.00 | 83 | 1015.6 |
| 20260903003923 | 66 | 225 | 3.5 | 6.1 | 0.00 | 0.00 | 0.00 | 83 | 1015.6 |
| 20260903002722 | 66 | 236 | 3.5 | 6.1 | 0.00 | 0.00 | 0.00 | 83 | 1017.3 |
| 20260903001521 | 66 | 248 | 6.1 | 7.0 | 0.00 | 0.00 | 0.00 | 83 | 1019.0 |
| 20260903000320 | 67 | 248 | 5.2 | 7.8 | 0.00 | 0.00 | 0.00 | 83 | 1019.0 |
| 20260902235159 | 67 | 232 | 7.0 | 11.3 | 0.00 | 0.00 | 0.00 | 82 | 1019.0 |
| 20260902233918 | 67 | 248 | 10.4 | 13.9 | 0.00 | 0.00 | 0.00 | 81 | 1019.0 |
| 20260902232717 | 67 | 236 | 12.2 | 13.0 | 0.00 | 0.00 | 0.00 | 80 | 1019.0 |
| 20260902231515 | 66 | 228 | 7.0 | 10.4 | 0.00 | 0.00 | 0.00 | 79 | 1019.0 |
| 20260902230415 | 66 | 248 | 5.2 | 6.1 | 0.00 | 0.00 | 0.00 | 79 | 1019.0 |
| 20260902225213 | 67 | 225 | 5.2 | 6.1 | 0.00 | 0.00 | 0.00 | 78 | 1019.0 |
| 20260902224012 | 67 | 248 | 3.5 | 5.2 | 0.00 | 0.00 | 0.00 | 78 | 1019.0 |
| 20260902222812 | 67 | 248 | 6.1 | 8.7 | 0.00 | 0.00 | 0.00 | 79 | 1019.0 |
| 20260902221610 | 67 | 248 | 6.1 | 7.0 | 0.00 | 0.00 | 0.00 | 79 | 1019.0 |
| 20260902220409 | 67 | 248 | 3.5 | 5.2 | 0.00 | 0.00 | 0.00 | 79 | 1019.0 |
| 20260902215201 | 67 | 242 | 2.6 | 3.5 | 0.00 | 0.00 | 0.00 | 78 | 1019.0 |
| 20260902213959 | 67 | 248 | 4.3 | 5.2 | 0.00 | 0.00 | 0.00 | 79 | 1019.0 |
| 20260902212758 | 67 | 235 | 4.3 | 6.1 | 0.00 | 0.00 | 0.00 | 79 | 1019.0 |
| 20260902211557 | 67 | 248 | 5.2 | 7.0 | 0.00 | 0.00 | 0.00 | 80 | 1019.0 |
| 20260902210356 | 67 | 248 | 5.2 | 6.1 | 0.00 | 0.00 | 0.00 | 81 | 1019.0 |
| 20260902205155 | 67 | 225 | 3.5 | 5.2 | 0.00 | 0.00 | 0.00 | 82 | 1019.0 |
| 20260902204014 | 67 | 225 | 2.6 | 4.3 | 0.00 | 0.00 | 0.00 | 82 | 1019.0 |
| 20260902202753 | 67 | 225 | 3.5 | 6.1 | 0.00 | 0.00 | 0.00 | 82 | 1019.0 |
| 20260902201551 | 67 | 234 | 3.5 | 4.3 | 0.00 | 0.00 | 0.00 | 82 | 1019.0 |
| 20260902200350 | 67 | 225 | 2.6 | 4.3 | 0.00 | 0.00 | 0.00 | 83 | 1019.0 |
| 20260902195149 | 67 | 203 | 0.9 | 2.6 | 0.00 | 0.00 | 0.00 | 82 | 1019.0 |
| 20260902194007 | 67 | 225 | 2.6 | 2.6 | 0.00 | 0.00 | 0.00 | 82 | 1019.0 |
| 20260902192747 | 68 | 248 | 3.5 | 4.3 | 0.00 | 0.00 | 0.00 | 82 | 1019.0 |
| 20260902191546 | 68 | 241 | 3.5 | 4.3 | 0.00 | 0.00 | 0.00 | 81 | 1019.0 |
| 20260902190345 | 68 | 248 | 3.5 | 5.2 | 0.00 | 0.00 | 0.00 | 80 | 1019.0 |
| 20260902185144 | 68 | 238 | 4.3 | 6.1 | 0.00 | 0.00 | 0.00 | 79 | 1019.0 |
| 20260902183943 | 69 | 225 | 4.3 | 6.1 | 0.00 | 0.00 | 0.00 | 78 | 1019.0 |
| 20260902182741 | 69 | 241 | 6.1 | 7.8 | 0.00 | 0.00 | 0.00 | 78 | 1019.0 |
| 20260902181620 | 69 | 225 | 3.5 | 6.1 | 0.00 | 0.00 | 0.00 | 77 | 1019.0 |
| 20260902180339 | 69 | 225 | 7.0 | 7.8 | 0.00 | 0.00 | 0.00 | 77 | 1019.0 |
| 20260902175137 | 70 | 242 | 6.1 | 7.8 | 0.00 | 0.00 | 0.00 | 77 | 1019.0 |
| 20260902173936 | 70 | 225 | 7.0 | 7.0 | 0.00 | 0.00 | 0.00 | 77 | 1019.0 |
| 20260902172756 | 70 | 225 | 7.8 | 9.6 | 0.00 | 0.00 | 0.00 | 77 | 1019.0 |
| 20260902171534 | 70 | 225 | 7.0 | 9.6 | 0.00 | 0.00 | 0.00 | 76 | 1019.0 |
| 20260902170333 | 71 | 248 | 5.2 | 6.1 | 0.00 | 0.00 | 0.00 | 76 | 1019.0 |
| 20260902165152 | 70 | 248 | 5.2 | 8.7 | 0.00 | 0.00 | 0.00 | 76 | 1019.0 |